Weather in Markelovo

Russia / Tomsk District     56°42′14″N   83°33′50″E
temp.,
°C
wind,
m/s
gust,
m/s
humid.,
%
clouds,
%
prec.,
mm/h
press.,
hPa
HPBL,
m
18 september, sat
sat1801:00+11w2496100 1.5 993130
04:00+8wsw4995100 5.8 997694
07:00+6wsw512935 6.2 999555
10:00+9sw510855 0.0 10011157
13:00+9sw51069100 0.1 10031354
16:00+9wsw5107076 0.3 10061306
19:00+8sw4968100 0.3 10081025
22:00+7sw3874100 0.0 1008767
19 september, sun
sun1901:00+7ssw3982100 0.1 1008467
04:00+6ssw4981100 0.0 1007464
07:00+5s3984100 0.0 1007364
10:00+8s4970100 0.0 1005670
13:00+10ssw5966100 0.0 10041307
16:00+9ssw6107999 0.1 1004891
19:00+8ssw37888 0.6 1003345
22:00+4wsw269859 0.1 1004124
20 september, mon
mon2001:00+3w26989 0.1 1004148
04:00+2wsw2797100 0.0 1005171
07:00+1sw289791 0.0 1006196
10:00+4sw5982100 0.0 1007897
13:00+4sw5993100 0.5 1008781
16:00+2wsw499798 1.1 1009580
19:00+3w3892100 1.3 1010522
22:00+2wsw379497 0.1 1010572
21 september, tue
tue2101:00+2w3698100 0.3 1011331
04:00+1w3796100 0.1 1011395
07:00+2wsw3797100 0.2 1012487
10:00+2wsw4998100 0.4 1013401
13:00+3w4895100 0.6 1014637
16:00+3wnw4897100 0.6 1015623
19:00+2wnw389299 0.9 1017619
22:00+1w399657 0.1 1018442
22 september, wed
wed2201:00+1wnw3691100 0.1 1019549
04:00−1wsw269897 0.1 1019229
07:00−2sw269894 0.1 1020156
10:00+2wsw4793100 0.1 1019517
13:00+2sw4792100 0.4 1019599
16:00+4wsw4787100 0.4 1019832
19:00+3sw369199 0.8 1019359
22:00+1sw2797100 0.1 1019198